Overview Statistics Trail Chart Weather Telemetry Raw packets
 

This is the latest recevied weather packets stored in our database for station/object KL3RR-2. If no packets are shown the sender has not sent any weather packets the latest 10 day(s).

<< 43 44 45 46 47 48 49 >>
Time Temp. Humidity Pressure Rain* Wind** Luminosity Snow
1777415164 7.78° C 68% 1013.4 hPa - - - -
1777414863 7.78° C 67% 1013.4 hPa - - - -
1777414562 7.78° C 65% 1013.4 hPa - - - -
1777414261 7.78° C 64% 1013.2 hPa - - - -
1777413960 8.33° C 63% 1013.1 hPa - - - -
1777413659 8.89° C 64% 1012.9 hPa - - - -
1777413358 8.89° C 64% 1012.8 hPa - - - -
1777413057 8.89° C 64% 1012.7 hPa - - - -
1777412756 8.89° C 65% 1012.6 hPa - - - -
1777412455 8.89° C 65% 1012.5 hPa - - - -
1777412154 8.89° C 64% 1012.5 hPa - - - -
1777411853 8.89° C 65% 1012.4 hPa - - - -
1777411552 8.89° C 68% 1012.5 hPa - - - -
1777411251 8.89° C 70% 1012.4 hPa - - - -
1777410950 8.33° C 71% 1012.3 hPa - - - -
1777410649 7.78° C 70% 1012.3 hPa - - - -
1777410348 8.33° C 68% 1012.3 hPa - - - -
1777410047 8.33° C 72% 1012.4 hPa - - - -
1777409746 8.33° C 71% 1012.2 hPa - - - -
1777409445 8.89° C 72% 1012.1 hPa - - - -
1777409144 8.89° C 71% 1011.8 hPa - - - -
1777408843 8.89° C 74% 1011.7 hPa - - - -
1777408542 8.33° C 75% 1011.6 hPa - - - -
1777408241 7.78° C 78% 1011.6 hPa - - - -
1777407940 7.78° C 80% 1011.5 hPa - - - -

* Rain since midnight (hover to see other rain measurements)
** Current wind speed in m/s (hover to see current wind gust speed)